SL-12 DEB

Satellite information

Favourite Embed

Satellite Type and Status

DEBRISIN ORBIT

Key statistics

Satellite SL-12 DEB at a glance.

Uptime

6466

Days in orbit

Revolutions

≈ 4.4

Per day

Orbit

HEO

HEO

Inclination

65.2

Latest

Satellite identification and parameters

Extended collection of information and parameters for SL-12 DEB.

Object identification

Identified? True

Debris? True

Object name: SL-12 DEB

International designator: 2007-052N

Object number (NORAD): 41681

Object ID (CCSDS): 41681

Country: COMMONWEALTH OF INDEPENDENT STATES (CIS)

Current information (Y/N): Y

RCS size: MEDIUM

Orbital parameters

Period: 328.137 minutes

Inclination: 65.1811 deg

SMA: 15759.051 km

Apoapsis: 18302.04 km

Periapsis: 459.793 km

RAAN: 316.9005 deg

Eccentricy: 0.5660952

Argument of periapsis: 215.6014 deg

Mean anomaly: 88.5588 deg

Mean motion: 4.38841464 rev/day

Mean motion (dot): 0.00000483 rev/day2

B* drag term: 0.00079127 1/REarth

Two-line elements (TLE)

Creation date: July 3, 2025, 5:26 p.m.

Reference frame: TEME

Reference center: EARTH

Epoch: July 2, 2025, 11:48 p.m. UTC

TLE line 0: 0 SL-12 DEB

TLE line 1: 1 41681U 07052N 25183.99226870 .00000483 00000-0 79127-3 0 9990

TLE line 2: 2 41681 65.1811 316.9005 5660952 215.6014 88.5588 4.38841464173612

Live tracking on map

Real-time ground track for satellite SL-12 DEB.

In-orbit conjunctions

A list of the most updated potential collisions computed for object SL-12 DEB.

Target Orbit TCA Probability of collision Miss distance Type
CZ-3B R/B MEO 2025-04-02 13:59:03 TBA 2486.0 (m) ROCKET BODY

Associated space launch

GLONASS navigation satellites

SL-12 DEB was lifted into orbit during the mission ‘Proton | Uragan-M 9 to 11’, on board a Proton space rocket.

The launch took place on Oct. 26, 2007, 7:35 a.m. from 81/24 (81P).

For more information about the launch, click the button.

Launch to space Proton | Uragan-M 9 to 11
Proton | Uragan-M 9 to 11

Agency: N/A

Status: Launch Successful

Launch date: Oct. 26, 2007, 7:35 a.m. UTC

Rocket: Proton

Launch pad: 81/24 (81P)

Location: Baikonur Cosmodrome, Republic of Kazakhstan

...

Latest news about this satellite

There are no fresh news available about this satellite. Check back as we update our databases every day.


Newsletter sign-up

Weekly statistics, charts and insights to help you stay on top of the space industry.